MERAH PUTIH 2

Last updated on Thu Oct 30 2025 00:02:52 GMT+0000 (Coordinated Universal Time)

1 58995U 24035A 25302.52729294 .00000000 00000+0 00000+0 0 9990 2 58995 0.0117 239.9579 0001662 341.7364 119.1893 1.00266831 6278
UTC large
Height (km)
Speed (km/s)
/
Latitude / Longitude
Inclination (degrees)
Orbital Period (minutes)
Azimuth
Elevation
Range (km)
Doppler Factor

Next 0 passes for location: London (51.5072 / 0.1276)

Sorry there are no passes over London.